| time (UTC) | temp F | wind direction | speed MPH | gust MPH | rain 1hr in | rain 24hr in | rain mn in | humidity % | barometer mb |
| 20260507174545 | 86 | 59 | 4.0 | 13.0 | 0.00 | 0.00 | 0.00 | 57 | 1015.8 |
| 20260507173041 | 86 | 67 | 7.0 | 17.0 | 0.00 | 0.00 | 0.00 | 56 | 1016.3 |
| 20260507171547 | 84 | 75 | 6.0 | 12.0 | 0.00 | 0.00 | 0.00 | 59 | 1016.5 |
| 20260507170037 | 85 | 90 | 3.0 | 14.0 | 0.00 | 0.00 | 0.00 | 64 | 1016.8 |
| 20260507164547 | 84 | 101 | 4.0 | 15.0 | 0.00 | 0.00 | 0.00 | 63 | 1017.0 |
| 20260507163037 | 85 | 98 | 4.0 | 12.0 | 0.00 | 0.00 | 0.00 | 61 | 1017.2 |
| 20260507161539 | 86 | 8 | 3.0 | 14.0 | 0.00 | 0.00 | 0.00 | 63 | 1017.2 |
| 20260507160035 | 86 | 89 | 3.0 | 11.0 | 0.00 | 0.00 | 0.00 | 62 | 1017.2 |
| 20260507154531 | 86 | 112 | 7.0 | 16.0 | 0.00 | 0.00 | 0.00 | 61 | 1017.3 |
| 20260507153031 | 87 | 94 | 7.0 | 13.0 | 0.00 | 0.00 | 0.00 | 61 | 1017.3 |
| 20260507151526 | 87 | 94 | 2.0 | 12.0 | 0.00 | 0.00 | 0.00 | 63 | 1017.3 |
| 20260507150025 | 85 | 75 | 6.0 | 13.0 | 0.00 | 0.00 | 0.00 | 64 | 1017.3 |
| 20260507144522 | 85 | 70 | 5.0 | 15.0 | 0.00 | 0.02 | 0.00 | 64 | 1017.4 |
| 20260507143037 | 84 | 66 | 6.0 | 12.0 | 0.00 | 0.02 | 0.00 | 64 | 1017.6 |
| 20260507141519 | 84 | 73 | 4.0 | 12.0 | 0.00 | 0.02 | 0.00 | 65 | 1017.6 |
| 20260507140020 | 84 | 72 | 7.0 | 11.0 | 0.00 | 0.02 | 0.00 | 64 | 1017.6 |
| 20260507134517 | 83 | 46 | 5.0 | 9.0 | 0.00 | 0.02 | 0.00 | 67 | 1017.8 |
| 20260507133014 | 84 | 52 | 5.0 | 13.0 | 0.00 | 0.02 | 0.00 | 67 | 1017.8 |
| 20260507131512 | 83 | 72 | 4.0 | 11.0 | 0.00 | 0.02 | 0.00 | 67 | 1017.9 |
| 20260507130028 | 84 | 41 | 2.0 | 11.0 | 0.00 | 0.02 | 0.00 | 66 | 1018.0 |
| 20260507124507 | 83 | 70 | 5.0 | 11.0 | 0.00 | 0.02 | 0.00 | 69 | 1017.8 |
| 20260507123005 | 82 | 97 | 3.0 | 9.0 | 0.00 | 0.02 | 0.00 | 69 | 1017.8 |
| 20260507121504 | 82 | 101 | 3.0 | 12.0 | 0.00 | 0.02 | 0.00 | 70 | 1017.8 |
| 20260507114600 | 82 | 80 | 2.0 | 6.0 | 0.00 | 0.02 | 0.00 | 74 | 1017.6 |
| 20260507113056 | 81 | 58 | 2.0 | 8.0 | 0.00 | 0.02 | 0.00 | 75 | 1017.5 |
| 20260507111553 | 80 | 84 | 4.0 | 7.0 | 0.00 | 0.02 | 0.00 | 77 | 1017.5 |
| 20260507110052 | 80 | 56 | 2.0 | 6.0 | 0.00 | 0.02 | 0.00 | 79 | 1017.6 |
| 20260507104554 | 79 | 51 | 1.0 | 4.0 | 0.00 | 0.02 | 0.00 | 80 | 1017.6 |
| 20260507103048 | 77 | 111 | 1.0 | 4.0 | 0.00 | 0.02 | 0.00 | 83 | 1017.5 |
| 20260507101548 | 0 | 0.0 | 0.0 | 0.00 | 0.02 | 0.00 | 1017.4 | ||
| 20260507100055 | 0 | 0.0 | 0.0 | 0.00 | 0.02 | 0.00 | 1017.2 | ||
| 20260507094549 | 0 | 0.0 | 0.0 | 0.00 | 0.02 | 0.00 | 1017.2 | ||
| 20260507093046 | 0 | 0.0 | 0.0 | 0.00 | 0.02 | 0.00 | 1017.1 | ||
| 20260507091547 | 0 | 0.0 | 0.0 | 0.00 | 0.02 | 0.00 | 1017.0 | ||
| 20260507090056 | 0 | 0.0 | 0.0 | 0.00 | 0.02 | 0.00 | 1017.0 | ||
| 20260507084552 | 0 | 0.0 | 0.0 | 0.00 | 0.02 | 0.00 | 1016.8 | ||
| 20260507083045 | 0 | 0.0 | 0.0 | 0.00 | 0.02 | 0.00 | 1016.8 | ||
| 20260507081552 | 0 | 0.0 | 0.0 | 0.00 | 0.02 | 0.00 | 1016.8 | ||
| 20260507080047 | 0 | 0.0 | 0.0 | 0.00 | 0.02 | 0.00 | 1016.8 | ||
| 20260507074544 | 0 | 0.0 | 0.0 | 0.00 | 0.02 | 0.00 | 1016.8 | ||
| 20260507073042 | 0 | 0.0 | 0.0 | 0.00 | 0.02 | 0.00 | 1016.7 | ||
| 20260507071538 | 0 | 0.0 | 0.0 | 0.00 | 0.02 | 0.00 | 1016.8 | ||
| 20260507070036 | 0 | 0.0 | 0.0 | 0.00 | 0.02 | 0.00 | 1016.8 | ||
| 20260507064546 | 0 | 0.0 | 0.0 | 0.00 | 0.02 | 0.00 | 1017.0 | ||
| 20260507063024 | 0 | 0.0 | 0.0 | 0.00 | 0.02 | 0.00 | 1017.1 | ||
| 20260507061519 | 0 | 0.0 | 0.0 | 0.00 | 0.02 | 0.00 | 1017.2 | ||
| 20260507060016 | 0 | 0.0 | 0.0 | 0.00 | 0.02 | 0.00 | 1017.5 | ||
| 20260507054510 | 0 | 0.0 | 0.0 | 0.00 | 0.02 | 0.00 | 1017.6 | ||
| 20260507053007 | 0 | 0.0 | 0.0 | 0.00 | 0.02 | 0.00 | 1017.7 | ||
| 20260507051502 | 0 | 0.0 | 0.0 | 0.00 | 0.02 | 0.00 | 1017.7 | ||
| 20260507050057 | 0 | 0.0 | 0.0 | 0.00 | 0.02 | 0.00 | 1017.9 | ||
| 20260507044557 | 76 | 107 | 1.0 | 3.0 | 0.00 | 0.03 | 0.00 | 81 | 1018.1 |
| 20260507043052 | 76 | 101 | 0.0 | 3.0 | 0.00 | 0.03 | 0.00 | 81 | 1018.3 |
| 20260507041550 | 76 | 77 | 1.0 | 4.0 | 0.00 | 0.03 | 0.00 | 81 | 1018.6 |
| 20260507040045 | 76 | 93 | 1.0 | 3.0 | 0.00 | 0.03 | 0.00 | 81 | 1018.8 |
| 20260507034545 | 77 | 92 | 1.0 | 5.0 | 0.00 | 0.03 | 0.03 | 81 | 1019.0 |
| 20260507033045 | 77 | 105 | 1.0 | 4.0 | 0.00 | 0.03 | 0.03 | 81 | 1019.1 |
| 20260507031545 | 77 | 77 | 1.0 | 3.0 | 0.00 | 0.03 | 0.03 | 81 | 1019.3 |
| 20260507030042 | 77 | 129 | 1.0 | 3.0 | 0.00 | 0.03 | 0.03 | 81 | 1019.3 |
| 20260507024543 | 77 | 101 | 0.0 | 3.0 | 0.00 | 0.04 | 0.03 | 81 | 1019.3 |
| 20260507023044 | 77 | 81 | 1.0 | 4.0 | 0.00 | 0.04 | 0.03 | 81 | 1019.3 |
| 20260507021544 | 77 | 88 | 1.0 | 4.0 | 0.00 | 0.04 | 0.03 | 81 | 1019.2 |
| 20260507020053 | 77 | 113 | 1.0 | 4.0 | 0.00 | 0.04 | 0.03 | 81 | 1019.1 |
| 20260507014546 | 77 | 115 | 1.0 | 5.0 | 0.00 | 0.04 | 0.03 | 80 | 1019.0 |
| 20260507013042 | 77 | 77 | 1.0 | 5.0 | 0.00 | 0.04 | 0.03 | 80 | 1018.9 |
| 20260507011541 | 77 | 87 | 1.0 | 4.0 | 0.00 | 0.04 | 0.03 | 80 | 1018.7 |
| 20260507010055 | 78 | 67 | 1.0 | 5.0 | 0.00 | 0.04 | 0.03 | 80 | 1018.5 |
| 20260507004538 | 77 | 128 | 1.0 | 4.0 | 0.00 | 0.04 | 0.03 | 80 | 1018.7 |
| 20260507003039 | 78 | 76 | 2.0 | 4.0 | 0.00 | 0.04 | 0.03 | 80 | 1018.5 |
| 20260507001536 | 78 | 72 | 1.0 | 5.0 | 0.00 | 0.04 | 0.03 | 79 | 1018.3 |
| 20260506234534 | 78 | 120 | 1.0 | 6.0 | 0.00 | 0.04 | 0.03 | 78 | 1018.0 |
| 20260506233034 | 78 | 103 | 1.0 | 4.0 | 0.00 | 0.04 | 0.03 | 78 | 1017.8 |
| 20260506231533 | 79 | 115 | 1.0 | 4.0 | 0.00 | 0.04 | 0.03 | 77 | 1017.7 |
| 20260506230036 | 79 | 136 | 1.0 | 4.0 | 0.00 | 0.04 | 0.03 | 75 | 1017.5 |
| 20260506224537 | 80 | 127 | 1.0 | 5.0 | 0.00 | 0.04 | 0.03 | 74 | 1017.3 |
| 20260506223031 | 80 | 115 | 3.0 | 8.0 | 0.00 | 0.04 | 0.03 | 74 | 1017.0 |
| 20260506221531 | 81 | 76 | 2.0 | 7.0 | 0.00 | 0.04 | 0.03 | 73 | 1016.8 |
| 20260506220036 | 81 | 90 | 4.0 | 10.0 | 0.00 | 0.04 | 0.03 | 71 | 1016.8 |
| 20260506214531 | 82 | 116 | 4.0 | 9.0 | 0.00 | 0.04 | 0.03 | 69 | 1016.9 |
| 20260506213029 | 82 | 61 | 5.0 | 11.0 | 0.00 | 0.04 | 0.03 | 69 | 1016.8 |
| 20260506211530 | 83 | 145 | 5.0 | 10.0 | 0.00 | 0.04 | 0.03 | 67 | 1016.6 |
| 20260506210031 | 83 | 86 | 4.0 | 12.0 | 0.00 | 0.04 | 0.03 | 66 | 1016.6 |
| 20260506204532 | 84 | 119 | 4.0 | 11.0 | 0.00 | 0.04 | 0.03 | 63 | 1016.6 |
| 20260506203025 | 85 | 125 | 5.0 | 10.0 | 0.00 | 0.04 | 0.03 | 59 | 1016.6 |
| 20260506201535 | 85 | 139 | 4.0 | 13.0 | 0.00 | 0.04 | 0.03 | 61 | 1016.6 |
| 20260506200023 | 86 | 98 | 4.0 | 11.0 | 0.00 | 0.04 | 0.03 | 58 | 1016.7 |
| 20260506194520 | 86 | 42 | 6.0 | 11.0 | 0.00 | 0.04 | 0.03 | 57 | 1016.8 |
| 20260506193024 | 87 | 79 | 6.0 | 12.0 | 0.00 | 0.04 | 0.03 | 56 | 1016.9 |
| 20260506191517 | 87 | 82 | 3.0 | 14.0 | 0.00 | 0.04 | 0.03 | 57 | 1016.8 |
| 20260506190023 | 86 | 51 | 4.0 | 13.0 | 0.00 | 0.04 | 0.03 | 60 | 1017.0 |
| 20260506184519 | 86 | 59 | 4.0 | 13.0 | 0.00 | 0.04 | 0.03 | 62 | 1017.2 |
| 20260506183010 | 86 | 79 | 4.0 | 10.0 | 0.00 | 0.04 | 0.03 | 61 | 1017.2 |
| 20260506181507 | 84 | 62 | 7.0 | 11.0 | 0.00 | 0.04 | 0.03 | 63 | 1017.4 |
| 20260506180010 | 84 | 68 | 3.0 | 13.0 | 0.00 | 0.04 | 0.03 | 72 | 1017.5 |